Regional Weather Roundup
Issued by NWS

Home | Current Version | Previous Version | Text Only | Print | Product List | Glossary Off
Versions: 1 2 3 4 5 6 7 8 9 10 11 12 13 14 15 16 17 18 19 20 21 22 23 24 25 26 27 28 29 30 31 32 33 34 35 36 37 38 39 40 41 42 43 44 45 46 47 48 49 50

000
ASUS43 KOAX 270510
RWRNE

WEATHER ROUNDUP FOR NEBRASKA
NATIONAL WEATHER SERVICE OMAHA NE
1200 AM CDT THU JUL 27 2017

NOTES: SATELLITE DATA IS BEING USED TO AUGMENT CLOUD COVER ABOVE
       12000 FEET.
       "FAIR" INDICATES FEW OR NO CLOUDS BELOW 12,000 FEET WITH NO
       SIGNIFICANT WEATHER AND/OR OBSTRUCTIONS TO VISIBILITY.


NEZ001>004-019>022-054>056-270600-
NEBRASKA PANHANDLE

CITY           SKY/WX    TMP DP  RH WIND       PRES   REMARKS
SCOTTSBLUFF    CLOUDY    70  59  68 E5        30.19F
ALLIANCE       CLOUDY    72  62  71 E10       30.19F
CHADRON        CLOUDY    76  53  44 E7        30.16F
GORDON         MOCLDY    68  59  71 E3        30.19S
KIMBALL        CLOUDY    69  62  78 E6        30.26R
SIDNEY         CLEAR     66  61  84 SE3       30.23R
$$

NEZ057>060-069>072-079>082-270600-
SOUTHWEST NEBRASKA

CITY           SKY/WX    TMP DP  RH WIND       PRES   REMARKS
NORTH PLATTE   PTCLDY    70  66  87 NE7       30.14R
IMPERIAL       CLOUDY    68  63  84 CALM      30.16R
LEXINGTON      PTCLDY    71  68  90 NE3       30.11R
MCCOOK         CLOUDY    71  68  90 NE6       30.11R
OGALLALA       PTCLDY    70  68  94 CALM      30.16S
$$

NEZ005>010-023>029-035>040-094-270600-
NORTH CENTRAL NEBRASKA

CITY           SKY/WX    TMP DP  RH WIND       PRES   REMARKS
VALENTINE      CLEAR     70  56  61 E6        30.16S
AINSWORTH      CLEAR     66  63  89 E3        30.16S
BROKEN BOW     CLOUDY    70  68  93 N5        30.12S
O`NEILL        CLEAR     67  62  85 N6        30.13R
ORD            PTCLDY    71  65  81 N6        30.09S
THEDFORD       CLEAR     68  66  91 E3        30.17S
$$

NEZ041-046>049-061>064-073>077-083>087-270600-
SOUTH CENTRAL NEBRASKA

CITY           SKY/WX    TMP DP  RH WIND       PRES   REMARKS
GRAND ISLAND   CLEAR     71  71 100 NE6       30.07S FOG
AURORA         CLEAR     70  70 100 N5        30.06F FOG
HASTINGS       CLEAR     72  70  93 NE7       30.07S FOG
HEBRON         CLOUDY    75  72  92 NE7       30.02F
HOLDREGE       PTCLDY    70  68  93 N5        30.09R
KEARNEY        MOCLDY    71  70  96 NE8       30.09R
YORK           CLEAR     72  72 100 CALM      30.06R FOG
$$

NEZ011>018-030>034-042>045-270600-
NORTHEAST NEBRASKA

CITY           SKY/WX    TMP DP  RH WIND       PRES   REMARKS
NORFOLK        CLEAR     73  63  70 NE10      30.08R
ALBION         CLEAR     72  67  84 NE6       30.09R
BLAIR          RAIN      73  72  98 N5        30.03S
COLUMBUS       PTCLDY    73  71  93 N7        30.06R
FREMONT        MOCLDY    73  72  98 CALM      30.04S
TEKAMAH        CLOUDY    75  72  90 N5        30.02R
WAYNE          CLEAR     68  67  98 CALM      30.07R
$$

NEZ050>053-065>068-078-088>093-270600-
SOUTHEAST NEBRASKA

CITY           SKY/WX    TMP DP  RH WIND       PRES   REMARKS
LINCOLN        MOCLDY    73  71  93 NE3       30.03S FOG
OMAHA EPPLEY   MOCLDY    72  70  93 CALM      30.02R FOG
BEATRICE       CLOUDY    75  74  98 CALM      30.01S
FALLS CITY     CLOUDY    75  74  96 N3        29.97S
NEBRASKA CITY  LGT RAIN  75  75 100 NE3       30.01R
PLATTSMOUTH    PTCLDY    73  72  96 CALM      30.02R FOG
$$

NEZ044-045-051>053-067-270600-
OMAHA AREA

CITY           SKY/WX    TMP DP  RH WIND       PRES   REMARKS
OMAHA EPPLEY   MOCLDY    72  70  93 CALM      30.02R FOG
BLAIR          RAIN      73  72  98 N5        30.03S
FREMONT        MOCLDY    73  72  98 CALM      30.04S
MILLARD        FOG       74  73  97 CALM      30.02R VSB 1/2
OFFUTT AFB     CLEAR     72  71  98 CALM      30.01R
PLATTSMOUTH    PTCLDY    73  72  96 CALM      30.02R FOG
WAHOO          FOG       71  70  97 N5        30.02S VSB 1/2
$$




USA.gov is the U.S. government's official web portal to all federal, state and local government web resources and services.